EW1931 Weather Reports


time (UTC)temp
C
wind
direction
speed
KPH
gust
KPH
rain 1hr
cm
rain 24hr
cm
rain mn
cm
humidity
%
barometer
mb
20260510050009 9 109 8.0 14.5 0.00 0.00 0.00 80 929.6
20260510044506 9 126 12.9 16.1 0.00 0.00 0.00 79 929.7
20260510043145 10 123 9.7 14.5 0.00 0.00 0.00 78 929.7
20260510041549 10 137 8.0 12.9 0.00 0.00 0.00 78 929.5
20260510040043 10 103 11.3 16.1 0.00 0.00 0.00 77 929.5
20260510034533 11 113 11.3 16.1 0.00 0.00 0.00 76 929.4
20260510033033 11 98 9.7 14.5 0.00 0.00 0.00 76 929.2
20260510031551 10 124 9.7 16.1 0.00 0.00 0.00 76 929.1
20260510030029 10 107 11.3 14.5 0.00 0.00 0.00 75 929.0
20260510024530 11 109 8.0 14.5 0.00 0.00 0.00 72 928.8
20260510021523 13 75 11.3 16.1 0.00 0.00 0.00 64 928.6
20260510020020 15 58 14.5 24.1 0.00 0.00 0.00 58 928.5
20260510014520 17 246 1.6 4.8 0.00 0.00 0.00 47 928.5
20260510011525 17 229 6.4 12.9 0.00 0.00 0.00 45 928.3
20260510010025 18 214 11.3 16.1 0.00 0.00 0.00 43 928.4
20260510004520 18 229 11.3 19.3 0.00 0.00 0.00 44 928.4
20260510001554 17 207 8.0 12.9 0.00 0.00 0.00 44 928.4
20260510000053 18 204 11.3 19.3 0.00 0.00 0.00 43 928.4
20260509234536 18 221 9.7 19.3 0.00 0.00 0.00 43 928.3
20260509233034 18 227 11.3 16.1 0.00 0.00 0.00 42 928.2
20260509231513 18 233 8.0 16.1 0.00 0.00 0.00 42 928.2
20260509230013 18 286 1.6 17.7 0.00 0.00 0.00 40 928.3
20260509224604 18 225 12.9 24.1 0.00 0.00 0.00 40 928.4
20260509223057 18 179 3.2 12.9 0.00 0.00 0.00 42 928.3
20260509221538 18 163 9.7 19.3 0.00 0.00 0.00 43 928.3
20260509220036 17 233 8.0 17.7 0.00 0.00 0.00 44 928.5
20260509214521 17 184 9.7 16.1 0.00 0.00 0.00 46 928.5
20260509213022 17 220 1.6 14.5 0.00 0.00 0.00 45 928.5
20260509211543 17 215 12.9 22.5 0.00 0.00 0.00 45 928.6
20260509210020 17 218 14.5 20.9 0.00 0.00 0.00 45 928.6
20260509204519 17 135 6.4 16.1 0.00 0.00 0.00 44 928.4
20260509203033 17 171 9.7 17.7 0.00 0.00 0.00 41 928.3
20260509201521 17 324 6.4 20.9 0.00 0.00 0.00 43 928.3
20260509200016 17 232 14.5 22.5 0.00 0.00 0.00 42 928.3
20260509194547 17 298 4.8 14.5 0.00 0.00 0.00 37 928.4
20260509193046 17 350 6.4 12.9 0.00 0.00 0.00 37 928.4
20260509191528 18 234 6.4 19.3 0.00 0.00 0.00 36 928.4
20260509190026 17 10 3.2 6.4 0.00 0.00 0.00 38 928.4
20260509184504 17 314 3.2 8.0 0.00 0.00 0.00 39 928.4
20260509183011 17 310 3.2 11.3 0.00 0.00 0.00 39 928.2
20260509181554 16 300 3.2 6.4 0.00 0.00 0.00 39 928.2
20260509180045 16 322 4.8 9.7 0.00 0.00 0.00 40 928.2
20260509174524 16 279 1.6 6.4 0.00 0.00 0.00 40 928.1
20260509173022 16 180 1.6 6.4 0.00 0.00 0.00 41 928.0
20260509171504 16 313 1.6 8.0 0.00 0.00 0.00 42 927.9
20260509170003 16 113 6.4 12.9 0.00 0.00 0.00 43 927.7
20260509164546 16 107 6.4 9.7 0.00 0.00 0.00 42 927.7
20260509163055 16 209 0.0 11.3 0.00 0.00 0.00 40 927.7
20260509161530 16 147 1.6 8.0 0.00 0.00 0.00 42 927.6
20260509160027 15 200 3.2 6.4 0.00 0.00 0.00 45 927.5
20260509154523 15 195 3.2 8.0 0.00 0.00 0.00 48 927.5
20260509153023 14 213 9.7 12.9 0.00 0.00 0.00 50 927.4
20260509151518 13 251 4.8 8.0 0.00 0.00 0.00 50 927.3
20260509150014 13 243 1.6 4.8 0.00 0.00 0.00 52 927.3
20260509144511 12 49 1.6 6.4 0.00 0.00 0.00 53 927.2
20260509143010 11 49 0.0 4.8 0.00 0.00 0.00 57 927.2
20260509141552 11 43 4.8 8.0 0.00 0.00 0.00 57 927.2
20260509140052 11 315 3.2 6.4 0.00 0.00 0.00 57 927.1
20260509134536 10 315 3.2 9.7 0.00 0.00 0.00 58 926.8
20260509133031 10 299 4.8 9.7 0.00 0.00 0.00 58 926.8
20260509131516 10 320 3.2 11.3 0.00 0.00 0.00 58 926.7
20260509130015 10 5 6.4 11.3 0.00 0.00 0.00 58 926.4
20260509124602 10 15 9.7 14.5 0.00 0.00 0.00 58 926.3
20260509123050 10 18 11.3 17.7 0.00 0.00 0.00 57 926.1
20260509121534 10 69 8.0 16.1 0.00 0.00 0.00 58 925.8
20260509120028 10 342 9.7 16.1 0.00 0.00 0.00 57 925.6
20260509114507 10 351 12.9 17.7 0.00 0.00 0.00 57 925.7
20260509113006 10 355 8.0 11.3 0.00 0.00 0.00 57 925.6
20260509111545 10 345 11.3 14.5 0.00 0.00 0.00 58 925.5
20260509110042 11 37 0.0 6.4 0.00 0.00 0.00 58 925.2
20260509104535 11 41 6.4 11.3 0.00 0.00 0.00 58 925.3
20260509103029 11 30 4.8 12.9 0.00 0.00 0.00 57 925.2
20260509101527 12 124 11.3 12.9 0.00 0.00 0.00 56 925.1
20260509100024 12 60 6.4 12.9 0.00 0.00 0.00 55 924.8
20260509094521 12 78 9.7 17.7 0.00 0.00 0.00 56 924.7
20260509093018 11 205 4.8 11.3 0.00 0.00 0.00 56 924.5
20260509091526 12 271 9.7 14.5 0.00 0.00 0.00 56 924.2
20260509090015 12 56 8.0 16.1 0.00 0.00 0.00 56 924.1
20260509084604 12 57 14.5 19.3 0.00 0.00 0.00 56 923.9
20260509083058 11 49 12.9 17.7 0.00 0.00 0.00 56 923.9
20260509081540 12 28 14.5 19.3 0.00 0.00 0.00 55 923.8
20260509080058 11 30 11.3 14.5 0.00 0.00 0.00 54 923.9
20260509074522 11 26 9.7 14.5 0.00 0.00 0.00 54 923.9
20260509073037 11 43 9.7 14.5 0.00 0.00 0.00 53 923.8
20260509071503 11 43 11.3 14.5 0.00 0.00 0.00 51 923.8
20260509070004 12 63 8.0 11.3 0.00 0.00 0.00 49 923.8
20260509064548 13 44 6.4 9.7 0.00 0.00 0.00 47 923.6
20260509063046 13 5 8.0 12.9 0.00 0.00 0.00 46 923.4
20260509061527 13 328 8.0 14.5 0.00 0.00 0.00 44 923.5
20260509060027 13 317 11.3 19.3 0.00 0.00 0.00 42 923.4
20260509054502 14 331 16.1 22.5 0.00 0.00 0.00 40 923.4
20260509053008 14 306 16.1 27.4 0.00 0.00 0.00 37 923.2
20260509051555 14 311 14.5 24.1 0.00 0.00 0.00 35 923.0